Watertown, WI

2:03 AM CST on February 22, 2017 (GMT -0600)
Watertown Municipal

Weather History for KRYV - May, 2013

Change the Weather History Date:

Saturday, May 11, 2013

  Actual Average Record
Temperature  
Mean Temperature 45 °F -  
Max Temperature 53 °F 69 °F 85 °F (1944)
Min Temperature 38 °F 46 °F 31 °F (1938)
Degree Days  
Heating Degree Days 20    
Moisture  
Dew Point 36 °F    
Average Humidity 72    
Maximum Humidity 100    
Minimum Humidity 35    
Precipitation  
Precipitation 0.00 in - - ()
Sea Level Pressure  
Sea Level Pressure 29.91 in    
Wind  
Wind Speed 8 mph (West)    
Max Wind Speed 25 mph    
Max Gust Speed 34 mph    
Visibility 8 miles    
Events      
Averages and records for this station are not official NWS values.
T = Trace of Precipitation, MM = Missing Value Source: NWS Daily Summary

Daily Weather History Graph

Daily Weather History Graph

Search for Another Location

Airport or City:

Trip Planner

Search our weather history database for the weather conditions in past years. The results will help you decide how hot, cold, wet, or windy it might be!

Date:

Astronomy

May. 11, 2013 Rise Set
Actual Time 5:35 AM CDT 8:07 PM CDT
Civil Twilight 5:02 AM CDT 8:40 PM CDT
Nautical Twilight 4:22 AM CDT 9:20 PM CDT
Astronomical Twilight 3:37 AM CDT 10:06 PM CDT
Moon 6:42 AM CDT (5/11) 9:49 PM CDT (5/11)
Length of Visible Light 15h 37m
Length of Day
14h 32m
Waxing Crescent, 3% of the Moon is Illuminated
May 11
Waxing Crescent
May 17
First Quarter
May 24
Full
May 31
Last Quarter
Jun 8
New

Hourly Weather History & Observations

Time (CDT) Temp. Windchill Dew Point Humidity Pressure Visibility Wind Dir Wind Speed Gust Speed Precip Events Conditions
12:15 AM 39.0 °F - 38.3 °F 97% 29.94 in 2.0 mi Calm Calm - N/A   Clear
12:35 AM 39.4 °F - 39.0 °F 99% 29.94 in 1.0 mi Calm Calm - N/A   Mist
12:55 AM 38.5 °F - 37.8 °F 97% 29.93 in 1.0 mi Calm Calm - N/A   Mist
1:15 AM 39.0 °F - 38.5 °F 98% 29.92 in 4.0 mi Calm Calm - N/A   Clear
1:35 AM 38.5 °F - 37.8 °F 97% 29.91 in 4.0 mi Calm Calm - N/A   Clear
1:55 AM 39.6 °F - 39.2 °F 99% 29.90 in 3.0 mi Calm Calm - N/A   Clear
2:15 AM 39.0 °F - 38.7 °F 99% 29.90 in 5.0 mi Calm Calm - N/A   Clear
2:35 AM 38.7 °F - 38.3 °F 99% 29.90 in 2.0 mi Calm Calm - N/A   Clear
2:55 AM 38.5 °F - 38.1 °F 99% 29.89 in 3.0 mi Calm Calm - N/A   Clear
3:15 AM 40.1 °F 38.0 °F 40.1 °F 100% 29.89 in 2.5 mi South 3.5 mph - N/A   Clear
3:35 AM 40.8 °F 37.8 °F 40.8 °F 100% 29.88 in 4.0 mi South 4.6 mph - N/A   Clear
3:55 AM 41.5 °F 38.6 °F 41.5 °F 100% 29.87 in 5.0 mi South 4.6 mph - N/A   Clear
4:15 AM 41.4 °F 39.4 °F 41.2 °F 99% 29.87 in 5.0 mi SSW 3.5 mph - N/A   Clear
4:35 AM 42.4 °F 38.8 °F 42.3 °F 99% 29.87 in 7.0 mi SW 5.8 mph - N/A   Scattered Clouds
4:55 AM 43.3 °F 39.9 °F 43.0 °F 99% 29.86 in 10.0 mi SSW 5.8 mph - N/A   Scattered Clouds
5:15 AM 44.2 °F 41.0 °F 43.7 °F 98% 29.86 in 10.0 mi SSW 5.8 mph - N/A   Clear
5:35 AM 44.8 °F 41.0 °F 44.2 °F 98% 29.85 in 10.0 mi SSW 6.9 mph - N/A   Scattered Clouds
5:55 AM 45.5 °F 41.8 °F 44.8 °F 97% 29.85 in 10.0 mi SSW 6.9 mph - N/A   Scattered Clouds
6:15 AM 45.9 °F 41.7 °F 45.0 °F 97% 29.84 in 10.0 mi SW 8.1 mph - N/A   Mostly Cloudy
6:35 AM 46.4 °F 42.4 °F 45.5 °F 97% 29.83 in 10.0 mi SSW 8.1 mph - N/A   Overcast
6:55 AM 47.3 °F - 45.9 °F 95% 29.83 in 7.0 mi SW 5.8 mph - N/A   Overcast
7:35 AM 48.4 °F - 46.8 °F 94% 29.81 in 7.0 mi SSW 11.5 mph - N/A   Overcast
7:55 AM 49.1 °F - 47.3 °F 93% 29.80 in 7.0 mi SW 6.9 mph - N/A   Overcast
8:15 AM 49.5 °F - 47.3 °F 92% 29.81 in 7.0 mi SW 11.5 mph - N/A   Overcast
8:35 AM 50.0 °F - 47.8 °F 92% 29.79 in 7.0 mi SW 11.5 mph - N/A   Overcast
8:55 AM 50.2 °F - 48.0 °F 92% 29.79 in 5.0 mi WSW 10.4 mph - N/A   Overcast
9:15 AM 51.3 °F - 48.4 °F 90% 29.78 in 7.0 mi SW 9.2 mph - N/A   Overcast
9:35 AM 51.4 °F - 48.0 °F 88% 29.78 in 10.0 mi WSW 9.2 mph - N/A   Overcast
9:55 AM 49.6 °F - 44.4 °F 82% 29.80 in 10.0 mi WNW 23.0 mph 34.5 mph N/A   Overcast
10:15 AM 46.4 °F 37.9 °F 39.2 °F 76% 29.83 in 10.0 mi NW 25.3 mph 31.1 mph N/A   Overcast
10:35 AM 46.4 °F 39.0 °F 37.8 °F 72% 29.84 in 10.0 mi NW 19.6 mph 34.5 mph N/A   Overcast
10:55 AM 46.8 °F - 37.9 °F 71% 29.85 in 10.0 mi NW 19.6 mph 34.5 mph N/A   Overcast
11:15 AM 47.1 °F - 38.1 °F 71% 29.86 in 10.0 mi NNW 18.4 mph 26.5 mph N/A   Overcast
11:35 AM 48.7 °F - 37.6 °F 65% 29.86 in 10.0 mi NNW 19.6 mph 27.6 mph N/A   Overcast
11:55 AM 48.9 °F - 36.5 °F 62% 29.87 in 10.0 mi NW 16.1 mph 29.9 mph N/A   Overcast
12:15 PM 50.0 °F - 35.4 °F 57% 29.88 in 10.0 mi NW 17.3 mph 29.9 mph N/A   Mostly Cloudy
12:35 PM 49.3 °F - 33.6 °F 55% 29.89 in 10.0 mi NW 19.6 mph 28.8 mph N/A   Scattered Clouds
12:55 PM 49.6 °F - 32.9 °F 53% 29.89 in 10.0 mi NW 25.3 mph 28.8 mph N/A   Scattered Clouds
1:15 PM 50.7 °F - 33.1 °F 51% 29.90 in 10.0 mi NW 19.6 mph 26.5 mph N/A   Mostly Cloudy
1:35 PM 51.3 °F - 31.8 °F 47% 29.91 in 10.0 mi NW 24.2 mph 32.2 mph N/A   Mostly Cloudy
1:55 PM 51.6 °F - 32.2 °F 47% 29.91 in 10.0 mi NW 17.3 mph 29.9 mph N/A   Scattered Clouds
2:55 PM 50.7 °F - 29.8 °F 45% 29.91 in 10.0 mi NW 21.9 mph 31.1 mph N/A   Mostly Cloudy
3:15 PM 52.2 °F - 30.9 °F 44% 29.92 in 10.0 mi NW 21.9 mph 32.2 mph N/A   Mostly Cloudy
3:35 PM 50.2 °F - 31.8 °F 49% 29.92 in 10.0 mi NNW 15.0 mph 33.4 mph N/A   Scattered Clouds
3:55 PM 51.3 °F - 31.6 °F 47% 29.92 in 10.0 mi NNW 16.1 mph 25.3 mph N/A   Clear
4:15 PM 49.3 °F - 31.6 °F 51% 29.93 in 10.0 mi North 17.3 mph 26.5 mph N/A   Mostly Cloudy
4:35 PM 50.4 °F - 28.4 °F 43% 29.93 in 10.0 mi WNW 16.1 mph 24.2 mph N/A   Scattered Clouds
4:55 PM 52.3 °F - 26.6 °F 37% 29.94 in 10.0 mi NW 16.1 mph 33.4 mph N/A   Mostly Cloudy
5:15 PM 51.3 °F - 25.2 °F 36% 29.94 in 10.0 mi NW 19.6 mph 25.3 mph N/A   Scattered Clouds
5:35 PM 52.0 °F - 25.2 °F 35% 29.95 in 10.0 mi NW 20.7 mph 33.4 mph N/A   Mostly Cloudy
5:55 PM 47.8 °F - 27.0 °F 44% 29.96 in 10.0 mi WNW 21.9 mph 31.1 mph N/A   Mostly Cloudy
6:15 PM 48.6 °F - 28.6 °F 46% 29.97 in 10.0 mi WNW 20.7 mph 31.1 mph N/A   Scattered Clouds
6:35 PM 48.2 °F - 27.1 °F 44% 29.98 in 10.0 mi WNW 21.9 mph 26.5 mph N/A   Scattered Clouds
6:55 PM 47.3 °F - 28.4 °F 48% 29.98 in 10.0 mi WNW 16.1 mph 24.2 mph N/A   Clear
7:15 PM 47.7 °F - 28.2 °F 47% 29.98 in 10.0 mi WNW 13.8 mph 20.7 mph N/A   Scattered Clouds
7:35 PM 45.9 °F 40.0 °F 26.6 °F 47% 29.99 in 10.0 mi NW 12.7 mph 21.9 mph N/A   Scattered Clouds
7:55 PM 45.3 °F 39.3 °F 28.0 °F 51% 29.99 in 10.0 mi WNW 12.7 mph 19.6 mph N/A   Scattered Clouds
8:15 PM 44.1 °F 36.8 °F 28.0 °F 53% 30.00 in 10.0 mi WNW 16.1 mph - N/A   Scattered Clouds
8:35 PM 43.3 °F 38.1 °F 29.3 °F 58% 30.00 in 10.0 mi West 9.2 mph 16.1 mph N/A   Clear
8:55 PM 42.8 °F 37.5 °F 29.5 °F 59% 30.01 in 10.0 mi West 9.2 mph - N/A   Clear
9:15 PM 42.1 °F 37.1 °F 30.0 °F 62% 30.01 in 10.0 mi West 8.1 mph - N/A   Clear
9:35 PM 41.5 °F 37.1 °F 30.6 °F 65% 30.01 in 10.0 mi West 6.9 mph - N/A   Clear
9:55 PM 41.2 °F 36.6 °F 30.9 °F 67% 30.01 in 10.0 mi West 6.9 mph - N/A   Scattered Clouds
10:35 PM 41.0 °F 36.4 °F 30.7 °F 67% 30.02 in 10.0 mi West 6.9 mph - N/A   Scattered Clouds
10:55 PM 41.5 °F 37.1 °F 30.0 °F 64% 30.02 in 10.0 mi West 6.9 mph - N/A   Mostly Cloudy
11:15 PM 42.3 °F 37.3 °F 28.6 °F 58% 30.02 in 10.0 mi WNW 8.1 mph - N/A   Overcast
11:35 PM 42.4 °F 37.5 °F 28.2 °F 57% 30.02 in 10.0 mi WNW 8.1 mph - N/A   Overcast
11:55 PM 42.3 °F 35.1 °F 28.6 °F 58% 30.03 in 10.0 mi NNW 13.8 mph 18.4 mph N/A   Overcast